Total_Precipitation_Accumulation
0.02 0.06 0.20 0.27 0.23 0.19 0.18 0.19 0.18 0.16 0.15 0.16 0.18 0.20 0.22 0.23 0.24 0.25 0.24 0.25 0.23 0.23 0.24 0.27 0.26 0.24 0.22 0.20 0.19 0.19 0.17 0.16 0.15 0.16 0.19 0.22 0.23 0.22 0.20 0.20 0.17 0.18 0.24
0.04 0.07 0.17 0.21 0.19 0.16 0.17 0.17 0.15 0.12 0.12 0.12 0.13 0.13 0.15 0.17 0.20 0.21 0.22 0.23 0.24 0.24 0.22 0.22 0.22 0.21 0.19 0.20 0.22 0.20 0.17 0.14 0.11 0.11 0.12 0.11 0.17 0.21 0.22 0.23 0.22 0.27 0.27
0.03 0.06 0.12 0.17 0.15 0.16 0.16 0.14 0.11 0.09 0.09 0.09 0.09 0.11 0.12 0.13 0.14 0.17 0.18 0.18 0.20 0.20 0.21 0.20 0.21 0.23 0.19 0.20 0.23 0.20 0.19 0.15 0.09 0.07 0.07 0.10 0.17 0.20 0.22 0.23 0.22 0.26 0.29
0.01 0.04 0.07 0.12 0.14 0.15 0.15 0.13 0.11 0.09 0.08 0.08 0.09 0.10 0.10 0.10 0.10 0.10 0.12 0.14 0.18 0.21 0.25 0.23 0.22 0.25 0.22 0.19 0.20 0.20 0.21 0.17 0.10 0.06 0.02 0.07 0.22 0.26 0.27 0.28 0.26 0.29 0.31
0.01 0.02 0.05 0.11 0.13 0.15 0.14 0.13 0.11 0.09 0.09 0.10 0.10 0.10 0.10 0.09 0.07 0.07 0.06 0.08 0.15 0.21 0.25 0.27 0.26 0.26 0.25 0.23 0.21 0.22 0.24 0.21 0.12 0.05 0.01 0.03 0.16 0.31 0.29 0.30 0.29 0.30 0.31
0.01 0.02 0.05 0.11 0.15 0.16 0.15 0.15 0.11 0.09 0.10 0.11 0.10 0.10 0.11 0.10 0.07 0.06 0.05 0.05 0.07 0.14 0.21 0.25 0.28 0.31 0.32 0.25 0.23 0.26 0.31 0.29 0.12 0.02 0.01 0.02 0.13 0.31 0.32 0.30 0.29 0.29 0.30
0.01 0.02 0.07 0.13 0.16 0.15 0.16 0.16 0.13 0.12 0.12 0.12 0.10 0.11 0.11 0.10 0.09 0.07 0.07 0.06 0.05 0.07 0.12 0.18 0.23 0.29 0.32 0.28 0.27 0.31 0.39 0.30 0.10 0.07 0.04 0.03 0.12 0.41 0.54 0.44 0.35 0.30 0.30
0.01 0.03 0.07 0.12 0.15 0.15 0.16 0.17 0.15 0.15 0.17 0.15 0.12 0.12 0.09 0.08 0.09 0.10 0.09 0.09 0.08 0.08 0.09 0.12 0.17 0.23 0.29 0.31 0.31 0.35 0.39 0.24 0.09 0.10 0.10 0.08 0.21 0.57 0.70 0.71 0.56 0.39 0.33
0.00 0.01 0.03 0.07 0.11 0.13 0.15 0.17 0.15 0.14 0.15 0.14 0.13 0.11 0.08 0.07 0.10 0.13 0.11 0.09 0.09 0.10 0.10 0.09 0.09 0.12 0.19 0.28 0.31 0.30 0.28 0.19 0.10 0.16 0.14 0.19 0.24 0.61 0.76 0.85 0.75 0.55 0.41
0.01 0.01 0.02 0.05 0.06 0.08 0.11 0.15 0.14 0.12 0.13 0.13 0.11 0.09 0.08 0.08 0.09 0.11 0.09 0.08 0.08 0.09 0.09 0.09 0.08 0.08 0.09 0.12 0.15 0.16 0.13 0.10 0.09 0.16 0.28 0.26 0.26 0.66 0.82 0.88 0.79 0.68 0.57
0.01 0.01 0.02 0.04 0.05 0.05 0.07 0.10 0.12 0.13 0.12 0.11 0.09 0.07 0.07 0.05 0.04 0.04 0.04 0.06 0.07 0.08 0.08 0.08 0.10 0.08 0.07 0.04 0.04 0.06 0.04 0.02 0.06 0.17 0.23 0.24 0.39 0.77 0.88 0.88 0.84 0.76 0.70
0.01 0.01 0.02 0.03 0.04 0.05 0.05 0.08 0.11 0.11 0.10 0.09 0.08 0.08 0.08 0.06 0.05 0.05 0.05 0.07 0.09 0.08 0.08 0.10 0.11 0.09 0.07 0.04 0.07 0.09 0.03 0.01 0.02 0.05 0.07 0.12 0.40 0.80 0.94 0.90 0.91 0.88 0.84
0.00 0.01 0.01 0.02 0.03 0.04 0.04 0.05 0.07 0.08 0.09 0.10 0.11 0.12 0.12 0.10 0.11 0.12 0.11 0.12 0.10 0.09 0.11 0.14 0.15 0.16 0.17 0.17 0.18 0.16 0.09 0.06 0.04 0.02 0.02 0.07 0.20 0.42 0.70 0.85 0.93 0.96 0.96
0.00 0.01 0.01 0.02 0.02 0.03 0.03 0.04 0.04 0.06 0.07 0.08 0.09 0.09 0.09 0.09 0.12 0.14 0.15 0.13 0.10 0.11 0.13 0.16 0.16 0.16 0.16 0.15 0.16 0.15 0.13 0.11 0.08 0.07 0.04 0.05 0.09 0.14 0.31 0.54 0.72 0.86 0.96
0.01 0.01 0.01 0.02 0.02 0.03 0.03 0.03 0.04 0.04 0.04 0.05 0.06 0.05 0.05 0.07 0.07 0.06 0.04 0.04 0.05 0.06 0.07 0.06 0.06 0.07 0.08 0.10 0.11 0.11 0.13 0.14 0.14 0.12 0.10 0.09 0.08 0.08 0.13 0.27 0.48 0.68 0.85
0.01 0.01 0.01 0.01 0.02 0.02 0.03 0.03 0.03 0.03 0.03 0.03 0.03 0.03 0.03 0.04 0.04 0.04 0.03 0.03 0.03 0.03 0.03 0.03 0.02 0.02 0.02 0.03 0.04 0.06 0.09 0.10 0.12 0.13 0.13 0.14 0.12 0.10 0.11 0.17 0.29 0.54 0.76
0.01 0.01 0.02 0.02 0.02 0.02 0.03 0.04 0.03 0.03 0.02 0.03 0.03 0.02 0.02 0.02 0.02 0.03 0.03 0.03 0.03 0.02 0.02 0.01 0.01 0.01 0.01 0.01 0.01 0.01 0.03 0.05 0.07 0.08 0.11 0.15 0.17 0.15 0.14 0.15 0.18 0.34 0.60
0.02 0.02 0.02 0.03 0.02 0.02 0.03 0.03 0.03 0.03 0.02 0.02 0.02 0.02 0.02 0.02 0.02 0.03 0.03 0.03 0.02 0.02 0.02 0.02 0.01 0.01 0.01 0.01 0.01 0.00 0.00 0.01 0.02 0.03 0.05 0.10 0.18 0.21 0.19 0.18 0.18 0.21 0.40
0.01 0.02 0.02 0.03 0.02 0.02 0.03 0.03 0.03 0.03 0.02 0.02 0.02 0.02 0.02 0.02 0.02 0.02 0.02 0.02 0.02 0.02 0.02 0.02 0.02 0.01 0.01 0.01 0.01 0.01 0.00 0.01 0.01 0.02 0.03 0.05 0.09 0.17 0.23 0.23 0.22 0.19 0.25
0.01 0.02 0.02 0.03 0.03 0.03 0.03 0.04 0.03 0.03 0.02 0.02 0.02 0.02 0.01 0.01 0.01 0.02 0.02 0.02 0.02 0.02 0.02 0.02 0.02 0.01 0.01 0.01 0.01 0.01 0.00 0.00 0.00 0.01 0.02 0.04 0.05 0.09 0.17 0.24 0.26 0.20 0.17
0.02 0.02 0.03 0.03 0.03 0.04 0.04 0.04 0.03 0.03 0.02 0.01 0.01 0.01 0.01 0.01 0.01 0.01 0.01 0.01 0.01 0.01 0.02 0.01 0.01 0.01 0.01 0.02 0.02 0.01 0.00 0.00 0.00 0.00 0.00 0.01 0.03 0.05 0.09 0.19 0.27 0.26 0.21
0.01 0.02 0.02 0.03 0.03 0.03 0.03 0.02 0.01 0.01 0.01 0.01 0.01 0.01 0.01 0.01 0.01 0.01 0.01 0.01 0.01 0.01 0.02 0.01 0.02 0.03 0.03 0.03 0.07 0.10 0.05 0.01 0.00 0.00 0.00 0.00 0.01 0.02 0.06 0.11 0.21 0.27 0.27
0.01 0.01 0.02 0.02 0.02 0.02 0.02 0.02 0.02 0.02 0.02 0.01 0.01 0.01 0.01 0.01 0.01 0.01 0.01 0.01 0.01 0.01 0.02 0.02 0.03 0.05 0.07 0.05 0.08 0.23 0.30 0.15 0.05 0.00 0.00 0.00 0.01 0.01 0.03 0.07 0.14 0.22 0.29
0.00 0.01 0.02 0.02 0.02 0.02 0.02 0.02 0.01 0.01 0.01 0.01 0.01 0.01 0.01 0.01 0.01 0.01 0.01 0.01 0.01 0.01 0.02 0.03 0.04 0.06 0.12 0.12 0.09 0.13 0.23 0.27 0.29 0.13 0.01 0.01 0.01 0.02 0.02 0.03 0.07 0.14 0.22
0.00 0.01 0.01 0.02 0.02 0.02 0.02 0.01 0.01 0.01 0.00 0.00 0.00 0.01 0.01 0.01 0.01 0.01 0.01 0.01 0.01 0.01 0.02 0.04 0.06 0.08 0.14 0.19 0.19 0.17 0.14 0.13 0.18 0.28 0.13 0.02 0.03 0.03 0.03 0.03 0.05 0.09 0.15
0.00 0.01 0.01 0.01 0.02 0.03 0.03 0.02 0.01 0.01 0.01 0.00 0.01 0.01 0.01 0.01 0.01 0.01 0.01 0.01 0.01 0.01 0.03 0.05 0.08 0.11 0.14 0.18 0.20 0.21 0.24 0.25 0.20 0.26 0.22 0.07 0.03 0.02 0.03 0.03 0.04 0.08 0.13